Weather Roundup
Issued by NWS

Home | Current Version | Previous Version | Text Only | Print | Product List | Glossary On
Versions: 1 2 3 4 5 6 7 8 9 10 11 12 13 14 15 16 17 18 19 20 21 22 23 24 25 26 27 28 29 30 31 32 33 34 35 36 37 38 39 40 41 42 43 44 45 46 47 48 49 50
238
NZUS93 KARX 110810
HRRWXR

CURRENT HOURLY OBSERVATIONS ACROSS
MUCH OF THE UPPER MISSISSIPPI VALLEY
NATIONAL WEATHER SERVICE LA CROSSE WI
200 AM CST MON DEC 11 2017


...SOUTHEAST MINNESOTA...


CITY           SKY/WX    TMP DP  RH WIND       PRES   REMARKS
ROCHESTER      CLOUDY    26  23  88 S9        29.89F WCI  17
ROCHESTER/MAYO CLOUDY    26  23  91 SE6       29.90F WCI  19
WINONA         LGT SNOW  30  25  80 SE5       29.96F WCI  25
AUSTIN         MOCLDY    27  23  86 S7        29.89F WCI  19
ALBERT LEA     CLOUDY    30  23  74 S7        29.87S WCI  23
DODGE CENTER   CLOUDY    27  25  93 S8        29.88F WCI  18
PRESTON        CLOUDY    25  22  87 S8        29.91F WCI  16
OWATONNA       NOT AVBL
FARIBAULT      CLOUDY    28  25  86 SE7       29.87F WCI  21
$$

...ELSEWHERE IN MINNESOTA...


CITY           SKY/WX    TMP DP  RH WIND       PRES   REMARKS
MINNEAPOLIS    LGT SNOW  25  25 100 SE8       29.87F FOG     WCI  16
INTNL FALLS    LGT SNOW  16  12  84 SE8       29.73F VSB 3/4 WCI   5
DULUTH         LGT SNOW  16  14  92 S8        29.81F VSB 1   WCI   5
RED WING       LGT SNOW  27  21  80 S5        29.90F VSB 1   WCI  21
REDWOOD FALLS  CLOUDY    34  27  75 SW8       29.83F WCI  27
MANKATO        CLOUDY    31  27  85 S8        29.86F WCI  23
WORTHINGTON    CLOUDY    34  26  72 SW15      29.86F WCI  24
FAIRMONT       CLOUDY    32  28  85 SW8       29.89R WCI  25
$$

...SOUTHWEST WISCONSIN...


CITY           SKY/WX    TMP DP  RH WIND       PRES   REMARKS
LA CROSSE      FLURRIES  28  21  75 S6        29.98S WCI  22
PRAIRIE DU CHI CLOUDY    26  21  82 CALM      29.99S
BOSCOBEL       CLOUDY    26  20  77 CALM      29.98F
LONE ROCK      CLOUDY    23  20  88 E6        29.98F WCI  16
PLATTEVILLE    CLOUDY    24  23  96 SE7       29.98F WCI  16
FORT MC COY    CLOUDY    25  20  82 S3        29.97F
CAMP DOUGLAS   CLOUDY    24  18  77 CALM      29.96F
MAUSTON-NEW LI CLOUDY    25  19  79 CALM      29.96F
VIROQUA        CLOUDY    24  21  89 SE6       29.93F WCI  17
WIS DELLS      CLOUDY    23  18  83 CALM      29.97F
$$

...ELSEWHERE IN WISCONSIN...


CITY           SKY/WX    TMP DP  RH WIND       PRES   REMARKS
MILWAUKEE      CLOUDY    20  13  74 CALM      30.03F
MADISON        CLOUDY    23  17  78 MISG      29.98F
GREEN BAY      CLOUDY    22  15  75 CALM      30.01R
EAU CLAIRE     LGT SNOW  23  20  88 S5        29.92F VSB 3/4 WCI  17
BLACK RVR FLS  CLOUDY    24  19  78 CALM      29.95F
MEDFORD        CLOUDY    17  13  82 SE6       29.92F WCI   9
WAUSAU         CLOUDY    18  13  80 CALM      29.96R
WIS RAPIDS     CLOUDY    20  14  77 CALM      29.99R
MARSHFIELD     CLOUDY    20  14  77 SE3       29.93S
RICE LAKE      LGT SNOW  18  17  95 CALM      29.91F
$$

...NORTHEAST IOWA...


CITY           SKY/WX    TMP DP  RH WIND       PRES   REMARKS
WATERLOO       CLOUDY    29  22  75 S6        29.97F WCI  23
DUBUQUE        CLOUDY    24  21  88 S7        29.98F WCI  16
DECORAH        CLOUDY    27  23  86 VRB5      29.94S WCI  21
MASON CITY     CLOUDY    29  22  75 S13       29.90F WCI  19
CHARLES CITY   CLOUDY    28  25  86 S8        29.95F WCI  20
OELWEIN        CLOUDY    27  25  93 S8        29.97F WCI  18
$$

...ELSEWHERE IN IOWA...


CITY           SKY/WX    TMP DP  RH WIND       PRES   REMARKS
DES MOINES     MOCLDY    34  24  67 CALM      29.97F
IOWA CITY      PTCLDY    30  23  75 SE5       30.03F WCI  25
FORT DODGE     MOCLDY    33  24  69 S8        29.93F WCI  26
MARSHALLTOWN   CLOUDY    31  23  72 S6        29.97F WCI  25
CEDAR RAPIDS   CLOUDY    29  23  78 SE7       29.99F WCI  22
$$

...NORTHERN ILLINOIS...


CITY           SKY/WX    TMP DP  RH WIND       PRES   REMARKS
CHICAGO-OHARE  PTCLDY    24  17  74 CALM      30.04F
CHICAGO-MIDWAY PTCLDY    27  19  72 CALM      30.05F
MOLINE         CLOUDY    29  23  78 CALM      30.04S
ROCKFORD       CLOUDY    19  16  88 SE6       30.02F WCI  11
PEORIA         CLOUDY    26  22  84 S3        30.07F
$$

NOTE: "FAIR" INDICATES FEW OR NO CLOUDS BELOW 12,000 FEET WITH NO
SIGNIFICANT WEATHER AND/OR OBSTRUCTIONS TO VISIBILITY. WIND
SPEEDS ARE IN MILES-PER-HOUR.




USA.gov is the U.S. government's official web portal to all federal, state and local government web resources and services.